ONEWEB-0296 (49085 NORAD) Tracking and Keplerian Element Data

This shows tracking and keplerian element data for the satellite.

Feedback or suggestion? Click here.




ElementValue
Catalog49085
NameONEWEB-0296
Epoch Orbit355
Epoch Day300.58334491
Epoch Year2021
RAAN342.742
Inclination87.2011
Eccentricity0.0023977
Argument of Perigee66.294
Mean Anonmoly307.6435
Mean Motion14.84461432
Decay Rate0.00033794
L11 49085U 21075L 21300.58334491 .00033794 00000-0 39778-2 0 9996
L22 49085 87.2011 342.7420 0023977 66.2940 307.6435 14.84461432 3552

Live tracking and technical data element details for ONEWEB-0296 (NORAD 49085). ONEWEB-0296 can be tracked NOW for your location showing map with azimuth and elevation plus other details from your city location.

Track the satellite on the map from your city or location and see movement details for azimuth, elevation, latitude, longitude, range, height, and movement on the map or in text.







IsCatalogInMostPopularTable: catalog: 49085, numindb: 12
Update: records affected: 1



GetName: 49085 ONEWEB-0296

Hit Count: updated at: Thu, 28 Oct 2021 10:17:34 GMT